SCP
0 0 0 0 0 0 0 0 0 0 0 0 0 0 0 0 0 0 0 0 0 0 0 0 0 0 0 0 0 0 0 0 0 0 0 0 0 0
0 0 0 0 0 0 0 0 0 0 0 0 0 0 0 0 0 0 0 0 0 0 0 0 0 0 0 0 0 0 0 0 0 0 0 0 0 0
0 0 0 0 0 0 0 0 0 0 0 0 0 0 0 0 0 0 0 0 0 0 0 0 0 0 0 0 0 0 0 0 0 0 0 0 0 0
0 0 0 0 0 0 0 0 0 0 0 0 0 0 0 0 0 0 0 0 0 0 0 0 0 0 0 0 0 0 0 0 0 0 0 0 0 0
0 0 0 0 0 0 0 0 0 0 0 0 0 0 -0 -0 0 0 0 0 0 0 0 0 0 0 0 0 0 0 0 0 0 0 0 0 0 0
0 0 0 0 0 0 0 0 0 0 0 0 0 0 0 0 0 0 0 0 0 0 0 -0 0 0 0 0 0 0 0 0 0 0 0 0 0 0
0 0 0 0 0 0 0 0 0 0 0 0 0 0 0 0 0 -0 -0 -0 -0 -0 -0 0 0 0 0 0 0 -0 -0 -0 -0 0 0 0 0 0
0 0 0 0 0 0 0 0 0 0 0 0 0 0 0 0 0 0 0 -0 -0 -0 -0 -0 -0 -0 -0 -0 -0 0 0 0 0 0 0 0 0 0
0 0 0 0 0 0 0 0 0 0 0 0 0 0 0 0 -0 -0 -0 -0 -0 -0 -0 -0 -0 -0 -0 -0 0 0 0 0 0 0 0 0 0 0
0 0 0 0 0 0 0 0 0 0 0 0 0 0 -0 0 0 0 0 -0 0 -0 -0 -0 -0 -0 -0 -0 -0 -0 -0 0 0 0 0 0 0 0
0 0 0 0 0 0 0 0 0 0 0 0 0 0 0 0 0 0 -0 -0 -0 -0 -0 -0 -0 -0 -0 -0 -0 -0 -0 0 0 0 0 0 0 0
0 0 0 0 0 0 0 0 0 0 0 0 0 0 0 0 0 0 0 -0 -0 -0 -0 -0 -0 -0 -0 -0 -0 0 0 0 0 0 0 0 0 0
0 0 0 0 0 0 0 0 0 0 0 0 0 0 0 0 0 0 0 -0 -0 0 0 -0 0 0 0 0 0 0 0 0 0 0 0 0 0 0
0 0 0 0 0 0 0 0 0 0 -0 -0 -0 -0 -0 -0 -0 -0 -0 0 0 -0 0 0 0 0 0 0 0 0 0 0 0 0 0 0 0 0
0 0 0 0 0 0 0 0 0 0 -0 -0 -0 -0 0 0 0 0 0 0 0 0 0 0 0 0 0 0 0 0 0 0 0 0 0 0 0 0
0 0 0 0 0 0 0 0 -0 -0 -0 -0 0 0 0 0 0 0 0 0 0 0 0 0 0 0 0 0 0 0 0 0 0 0 0 0 0 0
0 0 0 0 0 0 0 -0 -0 0 0 0 0 0 0 0 0 0 0 0 0 0 0 0 0 0 0 0 0 0 0 0 0 0 0 0 0 0
0 0 0 0 0 0 0 0 0 0 0 0 0 0 0 0 0 0 0 0 0 0 0 0 0 0 0 0 0 0 0 0 0 0 0 0 -0 0
0 0 0 0 0 0 0 0 0 0 0 0 0 0 0 0 0 0 0 0 0 0 0 0 0 0 0 0 0 0 0 0 0 0 0 0 -0 -0
0 0 0 0 0 0 0 0 0 0 0 0 0 0 0 0 0 0 0 0 0 0 0 0 0 0 0 0 -0 -0 0 0 0 -0 0 0 0 -0
0 0 0 0 0 0 0 0 0 0 0 0 0 0 0 0 0 0 0 0 0 0 0 0 0 0 0 0 0 0 0 0 0 0 -0 0 -0 0
0 0 0 0 0 0 0 0 0 0 0 0 0 0 0 0 0 0 0 0 0 0 0 0 0 0 0 0 0 -0 0 0 0 0 -0 -0 0 0
0 0 0 0 0 0 0 0 0 0 0 0 0 0 0 0 0 0 0 0 0 0 0 0 0 0 0 0 0 0 -0 -0 0 -0 0 0 0 -0
Wind_Speed_500mb
48 49 48 44 40 40 36 34 31 24 29 32 33 41 54 57 73 90 87 84 73 74 78 83 83 81 84 86 89 92 93 93 94 96 96 98 97 96
23 17 17 21 23 23 28 33 37 39 38 45 56 60 69 76 72 72 74 78 80 86 94 99 100 102 104 104 98 95 97 98 101 101 102 104 103 103
8 10 12 14 18 18 19 24 30 35 42 55 57 58 61 64 66 67 68 70 74 75 79 83 86 87 89 93 98 102 102 99 100 102 105 108 109 106
19 19 18 15 15 18 20 23 27 32 39 50 54 58 61 64 69 71 68 68 73 74 78 83 85 88 90 91 93 95 95 95 97 100 103 106 110 111
28 27 27 27 29 31 32 33 35 38 43 50 58 61 61 62 66 71 73 79 82 87 89 91 94 92 87 86 85 88 98 103 98 100 101 104 104 106
33 31 32 34 34 36 38 39 41 42 44 47 53 56 59 65 69 77 88 87 93 94 95 86 84 86 86 93 96 97 95 94 96 98 104 107 103 103
36 37 39 39 39 41 42 44 45 46 48 52 54 62 68 75 79 84 92 99 102 101 93 92 106 111 111 109 100 86 85 89 94 102 107 108 108 108
39 40 39 38 38 40 43 46 48 48 51 53 59 62 67 74 80 84 89 97 98 74 99 121 106 114 107 92 77 76 79 84 93 101 98 99 111 110
45 47 50 52 53 55 55 55 54 52 54 55 60 61 69 68 74 82 84 87 96 106 104 126 114 103 95 101 96 102 94 88 88 89 95 108 112 104
52 54 55 57 61 63 62 59 57 54 55 59 60 63 63 64 65 69 77 88 98 101 89 111 97 101 112 116 107 90 71 71 77 86 92 96 100 111
53 56 60 62 58 53 66 66 65 62 63 61 61 62 64 64 63 72 80 87 103 107 78 42 84 112 112 111 77 72 74 90 80 88 89 88 90 93
61 63 64 65 63 60 64 65 67 69 74 74 70 66 65 66 64 61 66 75 83 88 52 76 99 82 74 88 83 103 81 93 84 85 90 88 84 88
72 77 77 75 71 67 65 62 58 64 69 70 70 71 72 73 70 65 62 65 75 83 95 72 93 95 67 89 127 111 100 103 101 109 94 84 80 77
73 77 79 77 74 70 66 59 56 65 71 76 78 79 79 78 74 69 68 67 66 75 80 69 78 83 89 101 100 124 120 120 105 107 92 80 78 76
76 76 78 76 72 69 66 64 66 70 72 73 74 74 74 76 76 76 73 73 76 76 75 72 69 77 81 93 100 114 102 120 97 84 98 88 89 90
82 78 75 69 65 65 67 65 63 61 62 65 67 71 75 78 78 75 77 80 86 90 84 81 76 76 84 88 90 106 102 94 106 101 100 106 101 98
77 83 84 85 83 81 78 73 68 64 63 62 66 75 80 81 79 74 74 82 84 92 105 101 95 90 81 78 90 93 93 106 107 111 105 111 115 109
82 84 86 86 85 82 78 75 67 64 61 62 68 75 78 79 78 76 78 82 85 93 101 107 108 113 103 83 59 78 96 103 117 110 104 100 121 110
82 83 82 80 76 70 66 65 66 61 59 63 71 73 74 73 74 79 86 92 99 102 108 108 105 96 90 101 121 68 79 111 111 110 105 101 106 121
84 82 78 73 66 62 61 62 61 56 58 66 71 72 70 73 80 86 93 98 103 108 116 114 106 97 85 101 122 145 98 83 94 103 106 103 107 104
83 80 73 67 62 60 60 60 57 54 62 72 73 69 71 78 85 91 98 100 102 104 112 119 114 108 112 107 98 122 128 95 76 87 101 99 106 111
74 69 61 57 57 58 60 59 54 55 65 73 69 70 75 81 89 96 101 105 104 105 115 122 121 121 117 93 100 113 128 122 106 91 78 78 86 68
64 60 58 57 58 58 57 53 51 56 65 72 70 74 79 86 91 97 102 107 107 110 118 127 128 124 116 96 90 104 111 117 113 117 99 65 62 68
Wind_Direction_500mb
258 255 255 264 277 279 276 277 274 292 291 287 276 272 273 276 280 277 275 275 264 274 278 275 277 278 278 276 275 274 274 273 272 271 271 270 270 268
275 281 298 299 294 295 296 298 298 289 287 289 286 288 287 289 292 295 290 281 278 277 275 276 276 277 276 278 280 276 273 272 272 272 271 270 270 269
346 340 348 329 315 313 311 309 308 304 301 300 304 307 306 307 303 298 297 294 291 289 289 290 292 292 290 285 282 280 278 276 274 273 271 270 270 269
51 34 35 19 3 355 346 334 325 323 320 317 316 318 318 316 315 314 311 306 304 301 300 299 299 298 295 291 286 285 283 282 279 277 274 271 268 267
48 39 31 17 11 3 356 348 339 331 327 324 321 324 325 324 317 316 313 312 310 311 310 309 310 305 300 297 294 292 290 293 289 284 279 276 273 270
44 34 23 14 9 4 1 356 350 342 337 333 330 328 324 319 318 318 316 317 316 315 314 312 307 301 298 295 295 291 291 289 287 283 279 277 275 272
40 36 34 30 23 15 7 360 351 345 338 333 331 328 328 327 327 324 320 320 317 322 316 311 307 307 307 306 302 294 293 291 287 285 281 279 275 272
41 35 29 22 16 10 3 356 348 343 337 335 334 330 326 325 322 321 320 321 323 320 313 315 316 313 313 308 302 295 296 287 280 279 282 284 276 272
32 25 18 11 3 358 354 348 343 338 331 332 327 327 324 325 321 321 320 318 313 316 317 313 319 314 312 308 305 305 302 296 294 291 290 281 279 277
23 15 7 360 354 350 345 342 338 336 330 329 327 325 323 323 320 317 316 313 313 318 322 311 317 313 311 308 309 310 303 300 296 294 294 292 284 278
13 6 1 356 355 354 343 342 337 333 329 328 326 323 322 323 325 320 324 322 319 319 328 290 307 308 313 313 312 304 302 300 298 297 299 297 290 283
3 358 355 351 348 346 339 339 334 329 329 327 325 324 324 325 328 328 326 323 324 322 313 315 313 315 313 308 305 309 305 304 301 300 296 295 292 289
357 353 351 348 342 339 336 335 332 324 327 326 329 332 333 336 337 334 331 330 326 314 323 315 311 312 301 303 309 308 308 304 304 306 304 298 293 291
352 349 347 343 341 338 335 336 334 332 333 336 338 341 340 339 337 334 333 332 327 320 327 326 311 311 309 305 301 310 311 312 310 307 307 304 298 293
348 346 340 339 337 334 335 336 335 336 336 336 337 338 337 335 335 335 334 334 329 330 331 332 322 318 305 296 298 302 305 312 312 308 310 307 303 300
344 341 340 339 339 339 341 345 345 342 341 340 339 338 337 339 338 340 338 339 334 335 337 335 328 320 309 304 300 298 308 294 312 314 312 308 304 299
336 340 342 343 344 344 345 347 348 348 346 345 343 342 342 341 341 343 342 340 332 332 335 338 336 327 318 307 303 305 303 304 308 307 301 299 299 296
343 343 345 346 346 346 346 347 351 350 348 346 345 345 343 342 342 345 346 339 333 334 334 339 338 335 330 317 299 298 297 298 307 302 295 287 294 300
343 345 345 345 346 346 347 348 349 350 349 349 348 346 344 344 345 346 345 341 339 338 338 339 337 331 318 311 320 307 294 298 302 299 297 288 283 300
346 347 348 349 349 349 349 349 350 352 352 350 349 348 349 348 347 347 344 341 339 338 336 338 336 330 312 306 308 320 320 299 295 291 290 289 285 288
346 347 348 350 353 352 351 351 353 354 353 350 350 351 352 350 348 347 343 341 339 337 332 333 336 335 329 323 305 311 324 321 300 294 293 291 290 294
347 350 354 357 356 352 350 352 355 356 353 352 353 354 353 351 349 346 345 343 341 338 336 336 337 337 334 319 306 309 320 332 332 320 298 284 281 277
354 359 1 359 355 351 351 354 355 354 354 354 354 354 353 351 350 346 346 345 343 340 340 337 338 339 332 324 314 312 317 323 325 325 336 332 303 282
Wind_Speed_850mb
48 49 48 44 40 40 36 34 31 24 29 32 33 41 54 57 73 90 87 84 73 74 78 83 83 81 84 86 89 92 93 93 94 96 96 98 97 96
23 17 17 21 23 23 28 33 37 39 38 45 56 60 69 76 72 72 74 78 80 86 94 99 100 102 104 104 98 95 97 98 101 101 102 104 103 103
8 10 12 14 18 18 19 24 30 35 42 55 57 58 61 64 66 67 68 70 74 75 79 83 86 87 89 93 98 102 102 99 100 102 105 108 109 106
19 19 18 15 15 18 20 23 27 32 39 50 54 58 61 64 69 71 68 68 73 74 78 83 85 88 90 91 93 95 95 95 97 100 103 106 110 111
28 27 27 27 29 31 32 33 35 38 43 50 58 61 61 62 66 71 73 79 82 87 89 91 94 92 87 86 85 88 98 103 98 100 101 104 104 106
33 31 32 34 34 36 38 39 41 42 44 47 53 56 59 65 69 77 88 87 93 94 95 86 84 86 86 93 96 97 95 94 96 98 104 107 103 103
36 37 39 39 39 41 42 44 45 46 48 52 54 62 68 75 79 84 92 99 102 101 93 92 106 111 111 109 100 86 85 89 94 102 107 108 108 108
39 40 39 38 38 40 43 46 48 48 51 53 59 62 67 74 80 84 89 97 98 74 99 121 106 114 107 92 77 76 79 84 93 101 98 99 111 110
45 47 50 52 53 55 55 55 54 52 54 55 60 61 69 68 74 82 84 87 96 106 104 126 114 103 95 101 96 102 94 88 88 89 95 108 112 104
52 54 55 57 61 63 62 59 57 54 55 59 60 63 63 64 65 69 77 88 98 101 89 111 97 101 112 116 107 90 71 71 77 86 92 96 100 111
53 56 60 62 58 53 66 66 65 62 63 61 61 62 64 64 63 72 80 87 103 107 78 42 84 112 112 111 77 72 74 90 80 88 89 88 90 93
61 63 64 65 63 60 64 65 67 69 74 74 70 66 65 66 64 61 66 75 83 88 52 76 99 82 74 88 83 103 81 93 84 85 90 88 84 88
72 77 77 75 71 67 65 62 58 64 69 70 70 71 72 73 70 65 62 65 75 83 95 72 93 95 67 89 127 111 100 103 101 109 94 84 80 77
73 77 79 77 74 70 66 59 56 65 71 76 78 79 79 78 74 69 68 67 66 75 80 69 78 83 89 101 100 124 120 120 105 107 92 80 78 76
76 76 78 76 72 69 66 64 66 70 72 73 74 74 74 76 76 76 73 73 76 76 75 72 69 77 81 93 100 114 102 120 97 84 98 88 89 90
82 78 75 69 65 65 67 65 63 61 62 65 67 71 75 78 78 75 77 80 86 90 84 81 76 76 84 88 90 106 102 94 106 101 100 106 101 98
77 83 84 85 83 81 78 73 68 64 63 62 66 75 80 81 79 74 74 82 84 92 105 101 95 90 81 78 90 93 93 106 107 111 105 111 115 109
82 84 86 86 85 82 78 75 67 64 61 62 68 75 78 79 78 76 78 82 85 93 101 107 108 113 103 83 59 78 96 103 117 110 104 100 121 110
82 83 82 80 76 70 66 65 66 61 59 63 71 73 74 73 74 79 86 92 99 102 108 108 105 96 90 101 121 68 79 111 111 110 105 101 106 121
84 82 78 73 66 62 61 62 61 56 58 66 71 72 70 73 80 86 93 98 103 108 116 114 106 97 85 101 122 145 98 83 94 103 106 103 107 104
83 80 73 67 62 60 60 60 57 54 62 72 73 69 71 78 85 91 98 100 102 104 112 119 114 108 112 107 98 122 128 95 76 87 101 99 106 111
74 69 61 57 57 58 60 59 54 55 65 73 69 70 75 81 89 96 101 105 104 105 115 122 121 121 117 93 100 113 128 122 106 91 78 78 86 68
64 60 58 57 58 58 57 53 51 56 65 72 70 74 79 86 91 97 102 107 107 110 118 127 128 124 116 96 90 104 111 117 113 117 99 65 62 68
Wind_Direction_850mb
258 255 255 264 277 279 276 277 274 292 291 287 276 272 273 276 280 277 275 275 264 274 278 275 277 278 278 276 275 274 274 273 272 271 271 270 270 268
275 281 298 299 294 295 296 298 298 289 287 289 286 288 287 289 292 295 290 281 278 277 275 276 276 277 276 278 280 276 273 272 272 272 271 270 270 269
346 340 348 329 315 313 311 309 308 304 301 300 304 307 306 307 303 298 297 294 291 289 289 290 292 292 290 285 282 280 278 276 274 273 271 270 270 269
51 34 35 19 3 355 346 334 325 323 320 317 316 318 318 316 315 314 311 306 304 301 300 299 299 298 295 291 286 285 283 282 279 277 274 271 268 267
48 39 31 17 11 3 356 348 339 331 327 324 321 324 325 324 317 316 313 312 310 311 310 309 310 305 300 297 294 292 290 293 289 284 279 276 273 270
44 34 23 14 9 4 1 356 350 342 337 333 330 328 324 319 318 318 316 317 316 315 314 312 307 301 298 295 295 291 291 289 287 283 279 277 275 272
40 36 34 30 23 15 7 360 351 345 338 333 331 328 328 327 327 324 320 320 317 322 316 311 307 307 307 306 302 294 293 291 287 285 281 279 275 272
41 35 29 22 16 10 3 356 348 343 337 335 334 330 326 325 322 321 320 321 323 320 313 315 316 313 313 308 302 295 296 287 280 279 282 284 276 272
32 25 18 11 3 358 354 348 343 338 331 332 327 327 324 325 321 321 320 318 313 316 317 313 319 314 312 308 305 305 302 296 294 291 290 281 279 277
23 15 7 360 354 350 345 342 338 336 330 329 327 325 323 323 320 317 316 313 313 318 322 311 317 313 311 308 309 310 303 300 296 294 294 292 284 278
13 6 1 356 355 354 343 342 337 333 329 328 326 323 322 323 325 320 324 322 319 319 328 290 307 308 313 313 312 304 302 300 298 297 299 297 290 283
3 358 355 351 348 346 339 339 334 329 329 327 325 324 324 325 328 328 326 323 324 322 313 315 313 315 313 308 305 309 305 304 301 300 296 295 292 289
357 353 351 348 342 339 336 335 332 324 327 326 329 332 333 336 337 334 331 330 326 314 323 315 311 312 301 303 309 308 308 304 304 306 304 298 293 291
352 349 347 343 341 338 335 336 334 332 333 336 338 341 340 339 337 334 333 332 327 320 327 326 311 311 309 305 301 310 311 312 310 307 307 304 298 293
348 346 340 339 337 334 335 336 335 336 336 336 337 338 337 335 335 335 334 334 329 330 331 332 322 318 305 296 298 302 305 312 312 308 310 307 303 300
344 341 340 339 339 339 341 345 345 342 341 340 339 338 337 339 338 340 338 339 334 335 337 335 328 320 309 304 300 298 308 294 312 314 312 308 304 299
336 340 342 343 344 344 345 347 348 348 346 345 343 342 342 341 341 343 342 340 332 332 335 338 336 327 318 307 303 305 303 304 308 307 301 299 299 296
343 343 345 346 346 346 346 347 351 350 348 346 345 345 343 342 342 345 346 339 333 334 334 339 338 335 330 317 299 298 297 298 307 302 295 287 294 300
343 345 345 345 346 346 347 348 349 350 349 349 348 346 344 344 345 346 345 341 339 338 338 339 337 331 318 311 320 307 294 298 302 299 297 288 283 300
346 347 348 349 349 349 349 349 350 352 352 350 349 348 349 348 347 347 344 341 339 338 336 338 336 330 312 306 308 320 320 299 295 291 290 289 285 288
346 347 348 350 353 352 351 351 353 354 353 350 350 351 352 350 348 347 343 341 339 337 332 333 336 335 329 323 305 311 324 321 300 294 293 291 290 294
347 350 354 357 356 352 350 352 355 356 353 352 353 354 353 351 349 346 345 343 341 338 336 336 337 337 334 319 306 309 320 332 332 320 298 284 281 277
354 359 1 359 355 351 351 354 355 354 354 354 354 354 353 351 350 346 346 345 343 340 340 337 338 339 332 324 314 312 317 323 325 325 336 332 303 282